This demonstration page uses our WeatherBlox Daily Observations layout. Learn more.

Left ArrowRight Arrow

34.16533, -84.80231

Hourly Observations for October 11, 2021

Temp ( °F °C ) Dew Point ( °F °C ) Humidity (%) Winds ( mph kmh ) Pressure ( in mb ) Visibility ( mi km ) Precip ( " mm )
12:15 am 00:15 Clear with Mist and Fog 66 19 64 18 94 94 N N/A 29.99 1015 6 10 N/A
12:35 am 00:35 Mostly Clear with Mist and Fog 66 19 64 18 94 94 N N/A 29.99 1015 5 8 N/A
12:55 am 00:55 Clear with Mist and Fog 64 18 64 18 100 100 N N/A 29.98 1015 4 6 N/A
1:15 am 01:15 Partly Cloudy with Mist and Fog 64 18 64 18 100 100 N N/A 29.98 1015 5 8 N/A
1:35 am 01:35 Mostly Cloudy with Mist and Fog 64 18 64 18 100 100 N N/A 29.98 1015 5 8 N/A
1:55 am 01:55 Cloudy with Mist and Fog 64 18 64 18 100 100 N N/A 29.98 1015 6 10 N/A
2:15 am 02:15 Partly Cloudy 64 18 64 18 100 100 N N/A 29.97 1015 8 13 N/A
2:35 am 02:35 Clear with Mist and Fog 64 18 63 17 94 94 N N/A 29.97 1015 6 10 N/A
2:55 am 02:55 Clear 63 17 63 17 100 100 N N/A 29.96 1015 7 11 N/A
3:15 am 03:15 Clear with Mist and Fog 63 17 63 17 100 100 N N/A 29.95 1014 6 10 N/A
3:35 am 03:35 Clear 63 17 63 17 100 100 N N/A 29.96 1015 7 11 N/A
3:55 am 03:55 Clear with Mist and Fog 63 17 63 17 100 100 N N/A 29.97 1015 6 10 N/A
4:15 am 04:15 Clear 63 17 63 17 100 100 N N/A 29.98 1015 7 11 N/A
4:35 am 04:35 Clear with Mist and Fog 63 17 63 17 100 100 N N/A 29.99 1016 6 10 N/A
4:55 am 04:55 Clear 63 17 61 16 94 94 N N/A 29.99 1016 7 11 N/A
5:15 am 05:15 Clear 63 17 63 17 100 100 N N/A 29.99 1016 7 11 N/A
5:35 am 05:35 Clear with Light Rain 61 16 61 16 100 100 N N/A 30.00 1016 1 2 N/A
5:55 am 05:55 Clear with Mist and Fog 61 16 61 16 100 100 N N/A 30.01 1016 2 3 N/A
6:15 am 06:15 Clear with Mist and Fog 61 16 61 16 100 100 N N/A 30.01 1016 4 6 N/A
6:35 am 06:35 Partly Cloudy with Mist and Fog 61 16 61 16 100 100 N N/A 30.02 1017 1 1 N/A
6:55 am 06:55 Clear 61 16 61 16 100 100 N N/A 30.03 1017 7 11 N/A
7:15 am 07:15 Clear 63 17 61 16 94 94 N N/A 30.03 1017 7 11 N/A
7:35 am 07:35 Clear 63 17 61 16 94 94 N N/A 30.04 1017 7 11 N/A
7:55 am 07:55 Sunny with Mist and Fog 63 17 61 16 94 94 N N/A 30.04 1017 6 10 N/A
8:15 am 08:15 Sunny with Mist and Fog 63 17 63 17 100 100 N N/A 30.04 1017 6 10 N/A
8:35 am 08:35 Sunny 64 18 63 17 94 94 E 5 7 30.05 1018 8 13 N/A
8:55 am 08:55 Sunny 64 18 63 17 94 94 N N/A 30.06 1018 9 14 N/A
9:15 am 09:15 Sunny 64 18 63 17 94 94 ESE 5 7 30.06 1018 9 14 N/A
9:35 am 09:35 Sunny 66 19 64 18 94 94 ESE 8 13 30.05 1018 9 14 N/A
9:55 am 09:55 Sunny 66 19 64 18 94 94 E 5 7 30.04 1017 9 14 N/A
10:15 am 10:15 Sunny 68 20 64 18 88 88 VRB 3 6 30.04 1017 10 16 N/A
10:35 am 10:35 Sunny 70 21 64 18 83 83 VRB 7 11 30.03 1017 10 16 N/A
10:55 am 10:55 Mostly Sunny 73 23 64 18 74 74 SE 8 13 30.02 1017 10 16 N/A
11:15 am 11:15 Partly Cloudy 73 23 64 18 74 74 VRB 7 11 30.01 1016 10 16 N/A
11:35 am 11:35 Mostly Cloudy 75 24 64 18 69 69 VRB 7 11 30.02 1017 10 16 N/A
11:55 am 11:55 Mostly Cloudy 75 24 64 18 69 69 VRB 6 9 30.02 1017 10 16 N/A
12:15 pm 12:15 Cloudy 75 24 64 18 69 69 SE 7 11 30.01 1016 10 16 N/A
12:35 pm 12:35 Mostly Cloudy 75 24 64 18 69 69 VRB 5 7 30.00 1016 10 16 N/A
12:55 pm 12:55 Mostly Cloudy 77 25 64 18 65 65 SSE 8 13 30.00 1016 10 16 N/A
1:15 pm 13:15 Mostly Cloudy 77 25 64 18 65 65 VRB 7 11 29.99 1016 10 16 N/A
1:55 pm 13:55 Mostly Cloudy 79 26 63 17 58 58 VRB 6 9 29.97 1015 10 16 N/A
2:15 pm 14:15 Mostly Cloudy 77 25 63 17 61 61 VRB 3 6 29.96 1015 10 16 N/A
2:35 pm 14:35 Cloudy 79 26 63 17 58 58 N N/A 29.96 1014 10 16 N/A
2:55 pm 14:55 Mostly Cloudy 79 26 63 17 58 58 S 7 11 29.95 1014 10 16 N/A
3:15 pm 15:15 Mostly Cloudy 79 26 63 17 58 58 N N/A 29.95 1014 10 16 N/A
3:35 pm 15:35 Mostly Cloudy 79 26 63 17 58 58 ESE 6 9 29.94 1014 10 16 N/A
3:55 pm 15:55 Mostly Sunny 81 27 63 17 54 54 SSE 7 11 29.93 1014 10 16 N/A
4:15 pm 16:15 Partly Cloudy 79 26 63 17 58 58 SE 7 11 29.94 1014 10 16 N/A
4:35 pm 16:35 Cloudy 79 26 63 17 58 58 SSE 9 15 29.94 1014 10 16 N/A
4:55 pm 16:55 Mostly Cloudy 81 27 64 18 58 58 N N/A 29.92 1013 10 16 N/A
5:15 pm 17:15 Sunny 79 26 63 17 58 58 SE 9 15 29.93 1013 10 16 N/A
5:35 pm 17:35 Sunny 79 26 63 17 58 58 ESE 8 13 29.93 1013 10 16 N/A
5:55 pm 17:55 Sunny 79 26 63 17 58 58 SE 7 11 29.93 1013 10 16 N/A
6:15 pm 18:15 Sunny 79 26 63 17 58 58 VRB 6 9 29.93 1013 9 14 N/A
6:35 pm 18:35 Sunny 77 25 63 17 61 61 SE 6 9 29.94 1014 10 16 N/A
6:55 pm 18:55 Sunny 75 24 64 18 69 69 SE 5 7 29.94 1014 10 16 N/A
7:15 pm 19:15 Clear 73 23 64 18 74 74 N N/A 29.94 1014 10 16 N/A
7:35 pm 19:35 Clear 73 23 64 18 74 74 SSE 3 6 29.95 1014 10 16 N/A
7:55 pm 19:55 Clear 72 22 64 18 78 78 N N/A 29.97 1015 10 16 N/A
8:15 pm 20:15 Clear 70 21 64 18 83 83 E 3 6 29.97 1015 10 16 N/A
8:35 pm 20:35 Clear 68 20 64 18 88 88 N N/A 29.97 1015 10 16 N/A
8:55 pm 20:55 Clear 70 21 64 18 83 83 SE 3 6 29.98 1015 10 16 N/A
9:15 pm 21:15 Clear 68 20 64 18 88 88 N N/A 29.99 1016 10 16 N/A
9:35 pm 21:35 Mostly Clear 66 19 64 18 94 94 E 3 6 30.01 1016 10 16 N/A
9:55 pm 21:55 Clear 66 19 64 18 94 94 N N/A 30.01 1016 10 16 N/A
10:15 pm 22:15 Clear 66 19 64 18 94 94 N N/A 30.02 1017 10 16 N/A
10:35 pm 22:35 Clear 64 18 64 18 100 100 N N/A 30.03 1017 10 16 N/A
10:55 pm 22:55 Clear 64 18 63 17 94 94 E 3 6 30.04 1017 10 16 N/A
11:15 pm 23:15 Clear 64 18 64 18 100 100 N N/A 30.04 1017 10 16 N/A
11:35 pm 23:35 Clear 64 18 63 17 94 94 N N/A 30.04 1017 10 16 N/A
11:55 pm 23:55 Clear 64 18 63 17 94 94 N N/A 30.05 1018 10 16 N/A

Powered by AerisWeather